Temperature
28 29 29 29 29 29 29 29 29 30 30 30 29 28 27 26 25 24 23 22 22 21 21 20 20 20 19 20 19 19 19 19 18 18 18 18 18 17 17 17 17 16 16 16
27 28 28 28 29 29 29 29 29 29 29 30 29 27 26 25 24 23 23 22 22 21 20 20 20 19 19 19 19 19 19 19 18 18 18 18 18 17 17 17 16 16 16 16
27 28 27 27 28 29 29 29 29 29 29 29 28 27 26 25 24 23 23 22 21 21 20 20 19 19 19 19 19 19 18 18 18 18 18 18 17 17 17 17 16 16 16 16
26 26 25 28 29 29 28 29 29 29 28 28 27 25 24 24 23 23 22 22 21 21 20 20 19 19 19 18 18 18 18 18 18 18 17 17 17 17 17 16 16 16 16 16
26 26 26 27 27 28 27 28 28 28 28 26 25 25 24 23 22 22 22 21 21 21 20 20 19 19 18 18 18 18 18 17 17 17 17 17 17 16 16 16 16 16 15 15
25 24 25 27 27 26 27 26 27 27 27 26 25 26 25 23 22 22 21 21 20 20 20 19 19 18 18 18 18 18 18 17 17 17 17 17 17 16 16 16 16 15 15 15
24 24 26 26 26 25 25 26 25 25 25 25 25 25 23 22 21 21 20 20 20 20 19 19 19 18 18 18 18 18 17 17 17 17 17 17 16 16 16 16 15 15 15 15
24 24 25 25 25 25 24 24 24 24 23 23 23 22 22 21 21 20 20 19 19 19 19 18 18 18 17 17 17 17 17 17 17 17 17 16 16 16 15 15 15 15 14 14
24 24 23 23 23 23 22 22 22 22 22 22 22 21 21 20 20 19 19 19 18 18 18 18 17 17 17 17 17 17 17 16 16 16 16 16 15 15 15 15 15 14 14 14
22 23 22 21 21 21 21 21 21 21 21 21 21 20 20 19 19 19 18 18 18 18 17 17 17 17 17 17 17 17 16 16 16 16 16 15 15 15 15 15 14 14 14 14
21 22 21 21 20 20 20 20 20 20 20 20 20 19 19 19 18 18 18 18 17 17 17 17 17 16 16 16 16 16 16 16 16 16 15 15 15 14 14 14 14 14 14 13
21 21 21 20 19 19 19 19 19 19 19 19 19 19 18 18 17 17 17 17 17 17 17 17 16 16 16 16 16 16 16 16 16 16 15 15 15 14 14 14 14 14 13 13
19 19 19 19 18 18 18 18 18 18 18 18 18 18 17 17 17 16 16 16 16 16 16 16 16 16 16 16 16 16 16 15 15 15 15 15 14 14 14 13 13 13 13 13
16 17 17 18 17 17 18 18 18 18 17 17 17 17 17 16 16 16 16 16 16 16 16 16 16 16 15 16 15 15 15 15 15 15 15 14 14 14 13 13 13 13 13 13
16 16 16 17 17 17 17 17 17 17 17 17 16 16 16 16 16 16 15 15 15 15 15 15 15 15 15 15 15 15 15 15 14 14 14 14 14 14 13 13 13 13 13 12
15 15 16 16 16 16 16 16 16 16 16 16 16 16 16 15 15 15 15 15 15 15 15 15 15 15 15 15 15 15 14 14 14 14 14 14 14 13 13 13 13 13 12 12
15 15 15 15 15 15 15 16 16 16 16 16 15 15 15 15 15 14 14 15 14 14 14 14 14 14 14 14 14 14 14 14 14 14 14 13 13 13 13 13 13 13 12 12
14 14 15 15 15 15 15 15 15 15 15 15 15 15 15 14 14 14 14 14 14 14 14 14 14 14 14 14 14 14 14 14 13 13 13 13 13 13 13 12 12 12 12 12
14 14 14 14 14 14 14 14 14 14 14 14 14 14 14 14 14 14 14 14 13 13 13 13 13 13 13 13 13 13 13 13 13 13 13 12 12 12 12 12 12 12 12 12
13 13 14 14 14 14 14 14 14 14 14 14 14 13 13 13 13 13 13 13 13 13 13 13 13 13 13 13 13 13 13 13 13 13 12 12 12 12 12 12 12 12 12 11
13 13 13 13 13 13 13 13 13 13 13 13 13 13 13 13 13 13 13 13 13 13 13 13 13 12 12 12 13 12 12 13 12 12 12 12 12 12 12 11 11 11 11 11
12 12 13 13 13 13 13 13 13 13 13 13 13 13 13 13 13 12 12 12 12 12 12 12 12 12 12 12 12 12 12 12 12 12 12 12 11 11 11 11 11 11 11 10
12 12 12 12 12 12 12 12 12 12 12 12 12 12 12 12 13 12 12 12 12 12 12 12 12 12 12 12 12 12 12 12 12 11 11 11 11 11 11 11 11 10 10 10
11 11 11 11 11 12 12 12 12 12 12 12 12 12 12 12 12 12 12 12 12 12 12 12 12 12 12 11 11 11 11 11 11 11 11 11 11 11 11 10 10 10 10 10
11 11 11 11 11 11 11 11 12 12 12 12 11 11 11 11 11 11 11 11 11 11 11 11 11 11 11 11 11 11 11 11 11 11 10 11 10 10 10 10 10 10 10 9
10 11 11 11 11 11 11 11 12 11 12 12 12 11 11 11 11 11 11 11 11 11 11 11 11 11 11 11 10 10 10 10 10 10 10 10 10 10 10 10 10 9 9 9
10 10 10 10 10 11 11 11 11 11 11 11 11 11 11 11 11 11 11 11 10 11 10 10 10 10 10 10 10 10 10 10 10 10 10 10 10 10 9 9 9 9 9 8
Wind_Speed
11 9 9 11 12 14 16 16 16 13 12 9 6 5 5 5 6 7 7 7 7 7 7 7 7 7 8 8 8 8 8 8 8 7 7 7 6 6 6 6 6 6 6 6
12 12 12 14 14 15 16 16 16 15 12 6 4 4 5 6 7 8 7 7 6 6 7 7 7 7 8 8 7 7 8 8 7 7 6 6 6 6 6 6 6 6 5 5
13 12 13 17 16 15 14 14 15 15 10 5 5 5 6 6 7 8 8 7 7 6 6 6 7 8 8 7 7 7 7 7 7 7 6 6 6 6 6 6 6 6 6 6
12 11 16 11 8 11 13 13 12 11 8 7 6 5 5 5 6 7 7 7 6 6 6 6 7 7 7 7 7 7 7 6 6 6 6 5 5 5 6 5 6 6 6 6
12 15 15 10 7 9 12 12 10 10 8 6 5 5 5 5 5 6 6 6 5 5 5 5 6 7 8 8 7 7 6 6 6 6 5 5 5 5 5 4 5 5 5 5
13 15 16 9 4 5 9 12 6 7 7 7 7 8 6 6 6 6 5 5 5 5 5 6 6 7 8 8 7 7 6 6 6 6 6 5 5 4 4 4 4 4 4 5
16 15 12 4 2 5 10 6 2 4 5 6 8 6 1 4 5 6 6 5 6 6 5 5 6 7 7 7 6 6 5 5 5 6 6 5 4 4 4 4 3 3 4 4
14 16 12 1 4 6 4 4 2 3 3 4 4 2 2 3 4 5 6 6 6 5 5 5 6 6 6 5 4 4 5 5 5 5 5 4 4 4 4 4 4 4 4 4
9 8 2 2 4 3 4 4 4 4 3 3 3 3 3 3 4 5 5 6 6 6 5 4 4 5 5 5 4 4 4 5 5 5 4 4 4 4 4 4 4 4 3 3
9 7 5 5 5 6 6 6 5 5 4 4 4 3 3 3 4 4 5 6 6 6 5 4 4 4 4 4 5 5 5 4 4 5 4 4 4 4 4 4 4 3 3 3
11 9 7 7 7 6 6 6 6 4 4 5 5 4 4 4 4 4 5 5 5 6 6 5 5 4 4 5 5 5 4 4 5 5 5 4 4 2 3 3 2 3 3 3
10 7 8 7 6 6 6 6 6 5 4 5 5 4 5 5 4 5 5 5 5 6 6 5 5 5 5 5 5 5 4 4 4 4 4 4 4 3 2 1 2 1 1 2
9 9 9 10 9 8 8 8 7 7 6 5 5 4 4 4 4 5 5 6 6 6 5 5 5 5 4 5 6 5 4 4 3 4 4 4 4 4 3 2 2 2 2 1
8 9 10 9 9 8 7 7 6 7 6 6 5 4 4 4 4 5 6 6 6 5 5 5 5 5 4 5 5 5 4 3 3 3 4 4 4 4 4 3 3 2 3 4
10 10 11 10 8 7 7 6 6 6 6 6 6 6 5 5 5 5 5 6 6 6 5 5 5 4 4 4 5 4 3 3 2 3 4 4 4 4 4 4 3 2 2 3
11 11 10 9 9 8 7 7 7 7 7 7 6 6 6 5 5 5 6 6 6 6 5 5 5 4 4 4 4 4 3 3 3 4 4 4 4 4 4 4 3 3 3 2
11 10 10 10 9 8 8 7 7 7 7 7 7 6 6 5 5 5 6 6 5 5 5 5 4 4 4 4 4 4 3 4 5 4 3 3 3 4 4 3 3 3 3 2
12 12 11 10 9 8 7 7 6 6 6 6 6 6 7 7 6 6 5 5 5 5 5 4 4 4 4 4 4 4 3 3 4 3 3 3 3 3 4 4 4 4 3 3
9 9 9 8 8 7 6 6 6 5 5 6 6 7 7 6 6 6 5 6 6 6 5 3 4 4 4 4 3 4 4 4 4 4 4 4 4 4 4 4 4 4 3 3
7 7 6 6 6 6 5 4 4 4 5 6 6 7 7 7 6 6 6 6 6 4 4 4 5 5 4 4 4 4 5 5 4 4 4 4 4 4 4 4 4 4 4 3
6 5 5 4 4 4 4 4 4 4 5 5 6 6 6 6 6 6 6 6 5 4 5 6 6 5 5 4 6 5 5 5 5 4 4 4 4 4 4 4 4 3 3 3
5 4 4 3 3 3 3 4 4 4 4 5 5 5 6 6 7 6 6 4 4 4 5 5 5 4 3 5 6 5 5 5 4 4 4 4 4 4 4 4 4 3 3 3
4 3 3 3 3 3 4 4 4 4 5 4 5 5 5 5 4 5 5 4 4 5 5 4 3 4 5 6 5 5 5 5 5 4 4 4 4 4 4 4 4 3 3 3
3 3 3 3 3 3 4 4 4 4 4 4 4 5 5 4 4 4 4 5 5 5 5 4 5 6 7 6 5 5 5 5 5 5 5 4 4 4 4 4 4 3 3 3
3 3 3 2 3 3 3 3 4 4 4 4 4 4 4 4 3 3 3 4 5 5 4 5 7 7 7 6 5 5 5 5 5 5 5 5 5 4 4 4 4 3 4 4
3 2 1 2 2 2 2 3 3 3 3 4 3 3 3 3 3 3 2 3 4 4 4 3 5 6 6 5 5 5 5 4 5 5 5 5 5 4 4 4 4 4 3 3
3 2 1 1 1 1 1 2 3 3 3 3 3 2 2 2 2 2 2 2 3 4 4 4 4 5 5 5 4 4 4 4 4 4 4 4 4 4 3 4 4 4 4 4
Wind_Direction
255 260 251 241 235 232 237 248 256 259 259 256 236 216 200 187 178 176 175 174 171 172 168 170 170 173 178 182 182 182 185 191 194 195 197 201 203 209 208 210 214 215 219 222
247 246 249 249 243 238 239 245 252 260 262 262 238 213 198 193 188 185 185 183 176 173 172 174 174 176 175 179 180 181 188 195 193 195 198 202 206 208 208 209 211 213 217 217
249 243 250 244 238 239 240 243 249 252 256 237 229 215 207 203 198 195 191 186 180 179 179 177 177 176 176 174 174 179 186 194 195 198 201 205 210 207 208 210 209 211 213 210
249 245 246 248 241 242 245 245 246 254 255 240 239 227 213 205 203 200 195 190 185 181 181 179 175 173 173 170 172 176 183 192 194 198 202 203 205 208 212 214 211 209 208 208
244 242 244 242 236 238 242 246 247 248 243 234 220 213 208 205 204 201 196 189 186 186 179 171 172 169 169 172 175 181 187 195 196 196 197 198 200 202 207 210 209 206 207 210
238 245 246 240 222 240 248 242 239 244 235 221 205 227 212 193 203 199 192 184 179 178 172 164 163 167 173 176 180 187 193 198 198 197 200 202 199 200 203 206 208 213 216 220
239 243 245 259 228 212 232 246 253 246 239 223 218 247 213 183 190 184 179 174 169 169 168 161 163 167 179 183 188 188 190 193 192 192 196 194 192 196 197 204 207 216 221 223
235 242 241 210 210 234 287 344 319 280 256 236 232 224 182 174 174 172 173 170 167 163 156 154 164 172 182 187 181 178 184 187 184 184 194 184 185 190 195 202 205 211 218 229
241 248 290 242 248 282 302 300 297 289 277 244 228 219 198 189 181 175 173 167 167 162 155 156 167 176 183 178 174 178 186 189 185 184 186 186 187 191 198 206 217 217 220 229
252 245 254 260 274 280 289 286 287 283 270 247 241 233 213 197 190 183 176 171 171 168 167 166 172 181 179 168 172 177 188 187 180 181 183 181 191 197 202 207 218 224 231 236
247 255 261 254 271 283 288 286 283 275 256 242 237 231 212 196 193 192 187 183 183 180 176 174 175 178 175 164 167 174 183 189 194 193 187 186 191 200 210 203 218 240 245 248
254 255 259 267 277 278 274 273 271 264 251 242 234 224 210 200 196 198 196 191 190 188 183 177 178 179 177 170 172 178 186 194 202 198 188 190 186 180 95 148 137 180 297 276
272 281 278 280 282 277 268 267 265 256 246 238 235 224 210 205 202 201 201 195 194 193 188 180 177 175 176 180 182 189 200 206 214 207 198 198 196 197 191 172 162 169 180 183
278 277 271 272 278 277 270 262 255 248 242 236 229 221 212 209 209 207 205 200 195 193 192 186 184 182 183 185 186 192 205 199 213 218 213 208 208 208 204 201 196 200 175 166
271 270 269 273 274 270 264 255 244 239 236 231 224 220 215 212 214 213 209 201 192 195 197 192 191 188 186 193 189 196 210 209 216 226 216 208 206 206 203 201 198 195 186 166
274 270 268 264 263 262 257 250 244 240 233 226 221 217 217 217 215 209 207 202 199 203 200 199 197 193 190 194 190 196 204 189 213 226 216 209 205 206 206 202 204 203 202 195
273 268 264 261 260 257 256 254 247 241 234 225 221 216 214 214 209 208 210 203 202 204 197 195 192 191 194 200 206 210 207 192 195 218 217 215 211 212 213 212 211 212 207 174
265 264 262 261 257 254 253 252 246 240 233 227 217 213 211 209 210 211 208 198 196 194 190 187 181 187 194 202 214 217 206 206 212 212 206 211 215 216 215 211 210 216 215 184
270 262 258 255 252 247 243 242 245 240 232 220 213 212 210 208 207 206 197 194 196 197 197 190 175 192 199 200 214 214 209 208 211 209 209 199 208 215 213 213 213 216 221 218
277 264 258 251 244 243 238 236 238 233 226 214 212 211 211 212 210 201 195 201 206 207 190 181 194 206 213 206 218 217 211 210 212 210 210 216 213 210 212 217 218 219 222 226
284 266 256 247 241 239 238 240 237 229 221 214 212 212 211 212 207 199 202 209 200 197 196 185 204 209 211 209 217 220 214 211 212 210 210 213 214 215 215 218 221 219 224 228
289 273 262 245 232 234 237 239 230 226 218 216 215 209 207 208 202 200 205 216 197 173 198 204 209 191 199 208 218 217 212 210 212 213 216 212 212 217 219 221 223 225 231 234
301 285 265 249 238 236 240 236 224 217 216 214 208 206 207 205 206 207 208 202 200 190 210 209 181 161 188 215 218 212 209 208 210 214 220 218 217 220 220 221 225 227 232 237
308 299 280 261 240 229 228 227 215 205 206 204 201 202 204 199 203 208 211 176 182 189 212 176 154 178 203 214 212 210 209 208 210 212 216 221 220 218 223 227 230 232 233 237
305 294 276 256 231 220 216 214 205 196 197 194 191 189 202 205 213 212 210 197 174 186 210 175 173 196 207 210 211 213 214 213 214 215 216 218 219 217 222 227 229 231 236 240
326 310 290 261 258 245 226 216 207 199 197 189 187 185 190 187 193 201 201 197 191 194 213 197 190 200 207 206 209 212 213 203 202 212 215 218 218 219 224 227 232 241 246 250
347 354 348 302 256 247 235 209 200 198 193 190 190 189 192 190 192 199 200 202 202 200 200 196 198 198 197 198 201 203 207 210 210 210 209 213 218 221 224 229 235 240 246 245
Height
1469 1467 1468 1470 1471 1472 1475 1472 1474 1471 1470 1469 1471 1475 1480 1483 1486 1488 1491 1492 1494 1496 1497 1499 1501 1503 1505 1508 1510 1512 1514 1516 1517 1519 1520 1521 1522 1523 1524 1524 1526 1526 1527 1527
1473 1468 1468 1469 1467 1468 1469 1469 1469 1468 1468 1465 1470 1475 1479 1482 1484 1486 1488 1490 1492 1494 1495 1496 1498 1500 1502 1504 1507 1509 1510 1513 1515 1516 1517 1518 1519 1520 1521 1521 1522 1523 1523 1524
1474 1468 1470 1472 1464 1464 1465 1464 1465 1468 1466 1467 1471 1475 1477 1480 1482 1484 1487 1489 1490 1492 1493 1494 1496 1498 1500 1502 1504 1506 1508 1510 1512 1513 1514 1515 1516 1517 1517 1518 1519 1519 1520 1520
1473 1476 1485 1463 1456 1458 1461 1460 1461 1462 1464 1467 1471 1474 1477 1479 1480 1482 1484 1486 1488 1490 1492 1493 1494 1496 1498 1500 1502 1504 1505 1507 1509 1510 1511 1512 1513 1513 1514 1514 1515 1515 1516 1516
1472 1473 1468 1460 1458 1459 1461 1461 1459 1461 1464 1468 1471 1473 1475 1477 1479 1481 1482 1484 1486 1487 1489 1491 1492 1494 1496 1498 1500 1502 1503 1505 1507 1508 1509 1509 1510 1510 1511 1511 1512 1512 1513 1513
1470 1475 1473 1460 1456 1459 1461 1463 1460 1461 1463 1466 1469 1469 1470 1475 1477 1478 1480 1482 1484 1485 1487 1489 1490 1492 1494 1496 1498 1499 1501 1502 1504 1505 1506 1507 1507 1508 1509 1509 1509 1510 1511 1511
1468 1468 1458 1456 1457 1460 1468 1464 1461 1462 1464 1465 1466 1468 1471 1473 1474 1476 1478 1480 1482 1483 1485 1487 1488 1490 1492 1494 1495 1497 1499 1500 1501 1502 1503 1504 1505 1505 1506 1506 1507 1507 1507 1508
1464 1467 1463 1458 1459 1460 1462 1462 1463 1463 1464 1466 1467 1469 1470 1471 1473 1474 1477 1478 1480 1481 1483 1484 1486 1488 1490 1492 1494 1495 1496 1498 1499 1500 1501 1502 1502 1502 1503 1503 1504 1504 1504 1504
1458 1459 1459 1460 1461 1462 1463 1464 1464 1464 1465 1466 1467 1468 1469 1470 1472 1473 1475 1476 1478 1479 1481 1482 1484 1486 1488 1490 1491 1493 1495 1496 1496 1497 1498 1499 1499 1499 1500 1500 1501 1501 1501 1501
1458 1456 1460 1461 1461 1462 1463 1463 1463 1464 1464 1465 1465 1466 1467 1469 1470 1472 1473 1474 1476 1478 1479 1480 1482 1484 1486 1487 1489 1491 1492 1493 1494 1495 1496 1496 1496 1497 1498 1498 1498 1498 1498 1498
1458 1458 1460 1460 1461 1462 1462 1462 1462 1462 1462 1463 1464 1464 1466 1467 1468 1470 1471 1473 1474 1475 1477 1479 1480 1482 1483 1484 1486 1488 1489 1490 1492 1493 1493 1493 1493 1494 1495 1495 1495 1495 1495 1495
1456 1457 1458 1459 1460 1460 1460 1460 1460 1460 1460 1461 1462 1463 1464 1465 1466 1467 1469 1470 1472 1473 1475 1476 1478 1479 1480 1481 1483 1485 1487 1488 1490 1490 1491 1491 1491 1492 1491 1492 1492 1492 1492 1492
1458 1458 1457 1457 1457 1457 1457 1457 1458 1458 1458 1458 1459 1460 1461 1462 1463 1464 1466 1467 1469 1470 1472 1474 1475 1477 1478 1479 1481 1483 1484 1485 1487 1488 1488 1488 1489 1489 1489 1489 1489 1489 1489 1489
1457 1456 1455 1455 1455 1455 1454 1454 1455 1455 1455 1455 1456 1457 1459 1460 1461 1462 1463 1465 1466 1468 1469 1471 1473 1474 1476 1477 1479 1480 1482 1483 1484 1484 1485 1485 1486 1487 1487 1487 1486 1486 1487 1486
1453 1453 1452 1451 1451 1451 1451 1451 1451 1451 1451 1452 1453 1454 1456 1457 1458 1459 1461 1462 1463 1465 1467 1468 1470 1471 1473 1474 1476 1477 1479 1480 1481 1482 1482 1483 1483 1484 1484 1485 1484 1484 1484 1484
1448 1448 1447 1447 1447 1447 1448 1447 1447 1447 1448 1448 1449 1451 1453 1454 1455 1456 1457 1459 1460 1462 1463 1465 1466 1468 1470 1471 1472 1474 1476 1477 1478 1479 1480 1480 1480 1481 1482 1482 1482 1482 1482 1482
1444 1443 1443 1443 1443 1443 1443 1444 1444 1444 1444 1445 1446 1448 1449 1450 1452 1453 1454 1456 1457 1458 1460 1461 1463 1464 1466 1468 1469 1471 1473 1474 1474 1475 1476 1477 1477 1478 1479 1479 1479 1480 1480 1480
1439 1439 1439 1439 1439 1439 1439 1440 1440 1440 1441 1442 1443 1444 1446 1447 1448 1449 1451 1452 1454 1455 1457 1458 1459 1461 1463 1464 1466 1468 1470 1471 1471 1472 1472 1473 1474 1475 1476 1476 1476 1477 1478 1478
1434 1434 1434 1434 1434 1435 1435 1436 1436 1437 1438 1439 1440 1441 1442 1443 1445 1446 1447 1449 1450 1452 1454 1455 1456 1458 1460 1462 1463 1465 1466 1468 1469 1469 1469 1470 1470 1472 1473 1473 1474 1474 1475 1475
1430 1430 1430 1430 1431 1431 1432 1433 1433 1433 1434 1436 1437 1438 1439 1440 1442 1443 1444 1446 1447 1449 1451 1452 1453 1455 1457 1458 1460 1462 1463 1464 1465 1466 1466 1467 1468 1468 1469 1470 1471 1471 1472 1472
1426 1426 1426 1426 1427 1427 1428 1429 1430 1430 1431 1432 1433 1434 1435 1437 1438 1440 1441 1443 1445 1446 1448 1449 1451 1453 1454 1456 1457 1458 1460 1461 1462 1462 1463 1464 1465 1466 1467 1467 1468 1468 1468 1469
1423 1423 1423 1423 1424 1424 1425 1426 1427 1427 1428 1429 1430 1430 1432 1433 1435 1436 1438 1440 1442 1443 1444 1446 1448 1449 1451 1452 1454 1455 1456 1457 1458 1459 1460 1461 1462 1463 1464 1464 1465 1465 1465 1465
1421 1421 1421 1421 1421 1421 1422 1423 1423 1424 1425 1425 1426 1427 1428 1430 1432 1433 1435 1437 1438 1439 1441 1443 1444 1445 1447 1449 1451 1452 1453 1454 1455 1456 1457 1458 1459 1460 1461 1461 1461 1462 1462 1462
1419 1419 1418 1418 1418 1419 1419 1420 1421 1422 1422 1423 1424 1425 1426 1428 1429 1431 1433 1434 1435 1436 1438 1439 1440 1441 1443 1445 1447 1448 1449 1450 1451 1452 1454 1455 1456 1456 1457 1458 1458 1458 1458 1458
1416 1416 1416 1416 1416 1417 1418 1418 1419 1420 1420 1421 1422 1423 1425 1426 1427 1428 1430 1431 1432 1433 1434 1435 1436 1438 1440 1441 1443 1444 1445 1447 1448 1449 1450 1451 1452 1453 1453 1454 1454 1454 1455 1454
1415 1414 1414 1415 1415 1416 1416 1417 1417 1418 1419 1420 1421 1422 1423 1424 1425 1426 1427 1428 1429 1430 1431 1432 1433 1435 1436 1438 1440 1441 1442 1443 1444 1445 1447 1448 1448 1449 1449 1450 1450 1451 1451 1450
1414 1414 1413 1414 1414 1414 1415 1415 1416 1416 1417 1418 1419 1420 1421 1422 1423 1424 1425 1426 1426 1427 1428 1429 1431 1432 1434 1435 1437 1438 1439 1440 1441 1442 1443 1444 1444 1445 1446 1446 1446 1446 1446 1446